Location: Alsip
(41.6689°N, 87.7387°W)
Time: 14:29:21
(UTC+00:00)

Cosmos 1607 - Pass Details

Date: 14 July 2020
Orbit: 913 x 989 km, 65.0° (Epoch: 04 August)

Event Time Altitude Azimuth Distance (km) Brightness Sun altitude
Exits shadow 05:32:17 62° 218° (SW) 1,052 3.9 -26.5°
Maximum altitude 05:33:26 87° 302° (WNW) 951 3.8 -26.5°
Drops below altitude 10° 05:39:45 10° 32° (NNE) 2,698 7.0 -26.6°
Sets 05:42:21 0° 33° (NNE) 3,659 7.8 -26.6°
